Clinton, British Columbia

8:03 PM PST on December 17, 2017 (GMT -0800)
Clinton

Weather History for CWCL - February, 2014

Change the Weather History Date:

Sunday, February 2, 2014

  Actual Average Record
Temperature  
Mean Temperature 4 °F -  
Max Temperature 8 °F 31 °F 50 °F (2005)
Min Temperature -1 °F 15 °F -6 °F (2017)
Degree Days  
Heating Degree Days 62    
Moisture  
Dew Point -4 °F    
Average Humidity 65    
Maximum Humidity 72    
Minimum Humidity 51    
Precipitation  
Precipitation 0.00 in - - ()
Sea Level Pressure  
Sea Level Pressure 30.21 in    
Wind  
Wind Speed 3 mph ()    
Max Wind Speed 7 mph    
Max Gust Speed -    
Visibility 8.3 miles    
Events      
Averages and records for this station are not official NWS values.
T = Trace of Precipitation, MM = Missing Value Source: Averaged Metar Reports

Daily Weather History Graph

Daily Weather History Graph

Search for Another Location

Airport or City:

Trip Planner

Search our weather history database for the weather conditions in past years. The results will help you decide how hot, cold, wet, or windy it might be!

Date:

Astronomy

Feb. 02, 2014 Rise Set
Actual Time 7:41 AM PST 4:58 PM PST
Civil Twilight 7:05 AM PST 5:34 PM PST
Nautical Twilight 6:25 AM PST 6:14 PM PST
Astronomical Twilight 5:47 AM PST 6:53 PM PST
Moon 8:43 AM PST (2/2) 9:20 PM PST (2/2)
Length of Visible Light 10h 29m
Length of Day
9h 17m
Waxing Crescent, 12% of the Moon is Illuminated
Feb 2
Waxing Crescent
Feb 6
First Quarter
Feb 14
Full
Feb 22
Last Quarter
Mar 1
New

Hourly Weather History & Observations

Time (PST) Temp. Windchill Dew Point Humidity Pressure Visibility Wind Dir Wind Speed Gust Speed Precip Events Conditions
12:00 AM 3.2 °F - -5.8 °F 66% 30.31 in 9.0 mi Calm Calm - N/A   Unknown
12:13 AM 1.4 °F - -7.6 °F 66% 30.05 in 9.0 mi Calm Calm - N/A   Unknown
1:00 AM 5 °F - -3 °F 55% 30.31 in 9 mi NNE 3.5 mph - -  
1:00 AM 5.0 °F -2.1 °F -4.0 °F 66% 30.31 in 9.0 mi North 3.5 mph - N/A   Unknown
1:14 AM 3.2 °F - -5.8 °F 66% 30.06 in 9.0 mi Calm Calm - N/A   Unknown
2:00 AM 1.4 °F -8.3 °F -7.6 °F 66% 30.31 in 9.0 mi NNE 4.6 mph - N/A   Unknown
2:27 AM 1.4 °F -9.9 °F -7.6 °F 66% 30.07 in 9.0 mi NNW 5.8 mph - N/A   Unknown
2:30 AM 1.4 °F -9.9 °F -7.6 °F 66% 30.07 in 9.0 mi NNW 5.8 mph - N/A   Unknown
2:34 AM 1.4 °F -9.9 °F -7.6 °F 66% 30.07 in 9.0 mi NNW 5.8 mph - N/A   Unknown
2:56 AM 1.4 °F -8.3 °F -7.6 °F 66% 30.07 in 9.0 mi NW 4.6 mph - N/A   Unknown
3:00 AM 1.4 °F -11.3 °F -5.8 °F 72% 30.31 in 9.0 mi NNW 6.9 mph - N/A   Unknown
3:01 AM 3.2 °F -9.1 °F -5.8 °F 66% 30.07 in 9.0 mi NNW 6.9 mph - N/A   Unknown
3:11 AM 3.2 °F -9.1 °F -5.8 °F 66% 30.07 in 9.0 mi NW 6.9 mph - N/A   Unknown
4:00 AM 3 °F - -6 °F 54% 30.31 in 9 mi NNW 4.6 mph - -  
4:00 AM 3.2 °F -4.2 °F -5.8 °F 66% 30.31 in 9.0 mi North 3.5 mph - N/A   Unknown
4:06 AM 3.2 °F -6.2 °F -5.8 °F 66% 30.06 in 9.0 mi NNW 4.6 mph - N/A   Unknown
4:53 AM 3.2 °F - -5.8 °F 66% 30.06 in 9.0 mi North 2.3 mph - N/A   Unknown
5:00 AM 3.2 °F -4.2 °F -5.8 °F 66% 30.31 in 9.0 mi North 3.5 mph - N/A   Unknown
6:00 AM 3.2 °F -4.2 °F -5.8 °F 66% 30.31 in 9.0 mi North 3.5 mph - N/A   Unknown
7:00 AM 3 °F - -5 °F 54% 30.32 in 9 mi North 3.5 mph - -  
7:00 AM 3.2 °F -4.2 °F -5.8 °F 66% 30.32 in 9.0 mi North 3.5 mph - N/A   Unknown
8:00 AM 3.2 °F - -5.8 °F 66% 30.32 in 9.0 mi NNW 2.3 mph - N/A   Unknown
9:00 AM 3.2 °F -4.2 °F -5.8 °F 66% 30.31 in 9.0 mi NNW 3.5 mph - N/A   Unknown
10:00 AM 4 °F - -5 °F 54% 30.31 in 9 mi NNW 4.6 mph - -  
10:00 AM 5.0 °F -4.1 °F -4.0 °F 66% 30.31 in 9.0 mi North 4.6 mph - N/A   Unknown
11:00 AM 5.0 °F -4.1 °F -4.0 °F 66% 30.30 in 9.0 mi NNW 4.6 mph - N/A   Unknown
11:15 AM 5.0 °F -2.1 °F -4.0 °F 66% 30.05 in 9.0 mi NNW 3.5 mph - N/A   Unknown
11:16 AM 5.0 °F -2.1 °F -4.0 °F 66% 30.05 in 9.0 mi NW 3.5 mph - N/A   Unknown
11:30 AM 5.0 °F -4.1 °F -2.2 °F 72% 30.05 in 9.0 mi North 4.6 mph - N/A   Unknown
11:32 AM 5.0 °F -6.9 °F -2.2 °F 72% 30.05 in 9.0 mi NNW 6.9 mph - N/A   Unknown
11:56 AM 5.0 °F -2.1 °F -2.2 °F 72% 30.04 in 9.0 mi North 3.5 mph - N/A   Unknown
12:00 PM 5.0 °F -4.1 °F -2.2 °F 72% 30.30 in 9.0 mi NNW 4.6 mph - N/A   Unknown
12:34 PM 5.0 °F - -2.2 °F 72% 30.04 in 9.0 mi North 2.3 mph - N/A   Unknown
1:00 PM 6 °F - -3 °F 53% 30.28 in 6 mi NNW 3.5 mph - -  
1:00 PM 5.0 °F -2.1 °F -2.2 °F 72% 30.28 in 6.0 mi NNW 3.5 mph - N/A   Unknown
2:00 PM 6.8 °F -2.0 °F -2.2 °F 67% 30.27 in 9.0 mi NNE 4.6 mph - N/A   Unknown
3:00 PM 6.8 °F -2.0 °F -2.2 °F 67% 30.27 in 7.0 mi North 4.6 mph - N/A   Unknown
4:00 PM 8 °F - -1 °F 51% 30.27 in 7 mi NNE 2.3 mph - -  
4:00 PM 8.6 °F - -2.2 °F 62% 30.27 in 8.0 mi North 2.3 mph - N/A   Unknown
5:00 PM 8.6 °F 0.1 °F -2.2 °F 62% 30.27 in 9.0 mi NNE 4.6 mph - N/A   Unknown
6:00 PM 6.8 °F -2.0 °F -2.2 °F 67% 30.28 in 9.0 mi North 4.6 mph - N/A   Unknown
7:00 PM 6 °F - -3 °F 52% 30.27 in 9 mi NNE 4.6 mph - -  
7:00 PM 6.8 °F -0.1 °F -4.0 °F 61% 30.27 in 9.0 mi NNE 3.5 mph - N/A   Unknown
8:00 PM 5.0 °F -4.1 °F -4.0 °F 66% 30.30 in 9.0 mi NNE 4.6 mph - N/A   Unknown
9:00 PM 5.0 °F -4.1 °F -4.0 °F 66% 30.29 in 9.0 mi North 4.6 mph - N/A   Unknown
10:00 PM 4 °F - -5 °F 54% 30.30 in 7 mi NNE 3.5 mph - -  
10:00 PM 5.0 °F - -4.0 °F 66% 30.30 in 8.0 mi NNE 2.3 mph - N/A   Unknown
10:26 PM 5.0 °F -2.1 °F -4.0 °F 66% 30.05 in 6.0 mi NNE 3.5 mph - N/A   Unknown
11:00 PM 5.0 °F -2.1 °F -4.0 °F 66% 30.31 in 4.0 mi NE 3.5 mph - N/A   Unknown
11:16 PM 5.0 °F -2.1 °F -4.0 °F 66% 30.06 in 2.2 mi NNE 3.5 mph - N/A   Unknown
11:36 PM 5.0 °F - -4.0 °F 66% 30.06 in 2.2 mi North 2.3 mph - N/A   Unknown